GW1885 Weather Reports


time (UTC)temp
F
wind
direction
speed
knots
gust
knots
rain 1hr
in
rain 24hr
in
rain mn
in
humidity
%
barometer
mb
20260507021504 41 289 0.9 3.5 0.00 0.90 0.01 99 1010.6
20260507021004 41 340 0.9 5.2 0.00 0.90 0.01 99 1010.9
20260507020505 41 12 0.9 6.1 0.00 0.90 0.01 99 1010.9
20260507020005 41 349 0.9 6.1 0.00 0.90 0.01 99 1011.0
20260507015504 41 339 0.9 2.6 0.00 0.90 0.01 99 1010.9
20260507015004 41 332 0.9 2.6 0.00 0.90 0.01 99 1010.9
20260507014504 41 322 0.9 2.6 0.00 0.90 0.01 99 1010.9
20260507014004 41 337 0.9 5.2 0.00 0.90 0.01 99 1010.9
20260507013504 41 347 0.9 5.2 0.00 0.90 0.01 99 1010.8
20260507013005 40 339 0.9 5.2 0.00 0.90 0.01 99 1010.9
20260507012504 40 326 0.9 5.2 0.00 0.90 0.01 99 1010.7
20260507012004 41 324 0.9 5.2 0.00 0.90 0.01 99 1010.5
20260507011525 40 340 0.9 6.1 0.00 0.90 0.01 99 1010.5
20260507011005 40 317 0.9 6.1 0.00 0.90 0.01 99 1010.6
20260507010504 40 314 0.9 7.8 0.00 0.90 0.01 99 1010.4
20260507010026 40 346 0.9 7.8 0.00 0.90 0.01 99 1010.4
20260507005504 40 341 0.9 3.5 0.00 0.90 0.01 99 1010.2
20260507005004 40 336 0.9 3.5 0.00 0.90 0.01 99 1010.2
20260507004504 40 325 0.9 3.5 0.00 0.90 0.01 99 1010.1
20260507004005 40 315 0.0 2.6 0.00 0.90 0.01 99 1010.3
20260507003505 40 337 0.9 3.5 0.00 0.90 0.01 99 1010.3
20260507003025 40 352 0.9 3.5 0.00 0.90 0.01 99 1010.3
20260507002504 40 357 0.9 3.5 0.00 0.90 0.01 99 1010.2
20260507002005 40 4 0.9 5.2 0.00 0.90 0.01 99 1010.2
20260507001525 41 342 0.9 5.2 0.00 0.90 0.01 99 1010.3
20260507001005 41 346 0.9 5.2 0.00 0.90 0.01 99 1010.3
20260507000504 41 360 0.9 5.2 0.00 0.90 0.01 99 1010.2
20260507000005 41 329 0.9 7.8 0.00 0.90 0.01 99 1010.0
20260506235505 41 328 1.7 7.8 0.00 0.90 0.01 99 1009.9
20260506235004 41 337 1.7 5.2 0.00 0.90 0.01 99 1010.0
20260506234504 41 336 1.7 7.0 0.00 0.90 0.01 99 1009.9
20260506234005 41 332 1.7 7.0 0.00 0.90 0.01 99 1010.0
20260506233526 41 324 1.7 5.2 0.00 0.90 0.01 99 1010.1
20260506233004 41 331 1.7 5.2 0.00 0.90 0.01 99 1010.1
20260506232504 41 348 1.7 6.1 0.00 0.90 0.01 99 1010.2
20260506232005 41 344 1.7 6.1 0.00 0.90 0.00 99 1010.2
20260506231505 41 349 0.9 5.2 0.00 0.90 0.00 99 1010.2
20260506231004 42 358 0.9 3.5 0.00 0.90 0.00 99 1010.3
20260506230525 42 312 0.9 3.5 0.00 0.90 0.00 99 1010.4
20260506230004 42 313 0.9 6.1 0.00 0.90 0.00 99 1010.3
20260506225525 42 319 0.9 6.1 0.00 0.90 0.00 99 1010.4
20260506225005 42 294 0.9 6.1 0.00 0.90 0.00 99 1010.1
20260506224505 42 307 0.9 2.6 0.00 0.90 0.00 99 1010.3
20260506224004 42 356 0.9 3.5 0.01 0.90 0.00 99 1010.3
20260506223505 42 11 0.9 3.5 0.01 0.90 0.00 99 1010.3
20260506223005 42 5 0.0 3.5 0.01 0.90 0.00 99 1010.3
20260506222504 42 356 0.0 5.2 0.01 0.90 0.00 99 1010.2
20260506222004 42 349 0.9 5.2 0.00 0.89 0.00 99 1010.2
20260506221505 42 345 0.9 2.6 0.00 0.89 0.00 99 1010.2
20260506221004 42 346 0.0 2.6 0.00 0.89 0.00 99 1010.1
20260506220526 42 341 0.9 2.6 0.00 0.89 0.00 99 1010.1
20260506220005 42 297 0.9 2.6 0.00 0.89 0.00 99 1010.0
20260506215504 42 286 0.9 2.6 0.00 0.89 0.89 99 1009.9
20260506215026 42 294 0.9 5.2 0.00 0.89 0.89 99 1010.1
20260506214503 42 305 0.9 5.2 0.00 0.89 0.89 99 1009.9
20260506214025 42 338 0.9 5.2 0.00 0.89 0.89 99 1009.9
20260506213505 42 335 0.9 5.2 0.00 0.89 0.89 99 1009.8
20260506213004 42 326 0.9 3.5 0.00 0.89 0.89 99 1009.8
20260506212504 42 317 0.9 2.6 0.00 0.89 0.89 99 1009.9
20260506212025 42 300 0.9 2.6 0.00 0.89 0.89 99 1009.8
20260506211505 42 291 0.0 3.5 0.00 0.89 0.89 99 1009.8
20260506211004 42 292 0.0 3.5 0.00 0.89 0.89 99 1010.0
20260506210504 42 309 0.0 1.7 0.00 0.89 0.89 99 1009.8
20260506210025 42 309 0.9 3.5 0.00 0.89 0.89 99 1009.9
20260506205504 42 279 0.9 3.5 0.00 0.89 0.89 99 1009.7
20260506205004 42 245 0.0 1.7 0.00 0.89 0.89 99 1009.7
20260506204504 42 252 0.9 2.6 0.00 0.89 0.89 99 1009.5
20260506204004 42 302 0.9 3.5 0.00 0.89 0.89 99 1009.5
20260506203524 42 323 0.9 3.5 0.00 0.89 0.89 99 1009.6
20260506203005 42 321 0.9 3.5 0.00 0.89 0.89 99 1009.6
20260506202504 42 347 0.9 5.2 0.00 0.89 0.89 99 1009.6
20260506202004 41 353 0.9 5.2 0.00 0.89 0.89 99 1009.5
20260506201504 42 30 0.9 5.2 0.00 0.89 0.89 99 1009.4
20260506201025 41 1 0.9 5.2 0.00 0.89 0.89 99 1009.2
20260506200525 42 297 0.9 3.5 0.00 0.89 0.89 99 1009.3
20260506200004 42 285 0.9 3.5 0.00 0.89 0.89 99 1009.1
20260506195524 41 281 0.9 3.5 0.00 0.89 0.89 99 1009.3
20260506195005 42 246 0.9 2.6 0.00 0.89 0.89 99 1009.2
20260506194526 42 250 0.9 2.6 0.00 0.89 0.89 99 1009.1
20260506194004 41 43 0.9 3.5 0.00 0.89 0.89 99 1009.2
20260506193504 42 33 0.9 5.2 0.00 0.89 0.89 99 1009.2
20260506193004 42 333 0.9 5.2 0.00 0.89 0.89 99 1009.3
20260506192524 42 329 0.9 3.5 0.00 0.89 0.89 99 1009.3
20260506192004 41 315 0.9 3.5 0.00 0.89 0.89 99 1009.2
20260506191504 42 320 0.9 2.6 0.00 0.89 0.89 99 1009.1
20260506191004 42 326 0.0 3.5 0.00 0.89 0.89 99 1009.1
20260506190503 41 326 0.9 3.5 0.00 0.89 0.89 99 1009.0
20260506190005 42 341 0.9 3.5 0.00 0.89 0.89 99 1008.9
20260506185504 41 305 0.9 6.1 0.00 0.89 0.89 99 1008.9
20260506185005 41 344 0.9 6.1 0.00 0.89 0.89 99 1008.9
20260506184504 42 2 0.9 3.5 0.01 0.89 0.89 99 1008.8
20260506184004 41 243 0.9 6.1 0.00 0.89 0.89 99 1009.0
20260506183524 42 270 0.9 6.1 0.00 0.89 0.89 99 1008.8
20260506183005 42 267 0.9 3.5 0.01 0.89 0.89 99 1008.8
20260506182504 41 246 0.9 5.2 0.01 0.89 0.89 99 1008.8
20260506182004 41 244 0.9 5.2 0.01 0.89 0.89 99 1008.6
20260506181524 42 274 0.9 3.5 0.01 0.89 0.89 99 1008.9
20260506181004 41 294 0.9 2.6 0.02 0.89 0.89 99 1008.8
20260506180503 42 124 0.9 2.6 0.02 0.89 0.89 99 1008.7
20260506180006 42 74 0.9 6.1 0.02 0.89 0.89 99 1008.7
20260506175525 42 14 0.9 6.1 0.02 0.89 0.89 99 1008.5
20260506175004 41 345 0.9 6.1 0.02 0.89 0.89 99 1008.5
20260506174505 41 344 0.9 6.1 0.02 0.88 0.88 99 1008.4
20260506174004 41 13 0.9 3.5 0.02 0.88 0.88 99 1008.3
20260506173525 41 337 0.9 3.5 0.02 0.88 0.88 99 1008.3
20260506173025 41 332 0.9 3.5 0.02 0.88 0.88 99 1008.5
20260506172504 42 12 0.9 5.2 0.03 0.88 0.88 99 1008.4
20260506172026 42 2 0.9 6.1 0.02 0.87 0.87 99 1008.3
20260506171504 42 323 0.9 6.1 0.02 0.87 0.87 99 1008.2
20260506171003 42 319 0.9 1.7 0.02 0.87 0.87 99 1008.4
20260506170505 42 274 0.9 1.7 0.02 0.87 0.87 99 1008.5
20260506170005 42 286 0.9 3.5 0.02 0.87 0.87 99 1008.4
20260506165525 41 355 0.9 9.6 0.02 0.87 0.87 99 1008.4
20260506165003 42 16 1.7 9.6 0.02 0.86 0.86 99 1008.4
20260506164505 41 26 0.9 7.8 0.02 0.86 0.86 99 1008.2
20260506164004 42 18 0.9 7.0 0.02 0.86 0.86 99 1008.2
20260506163503 42 359 0.9 3.5 0.02 0.86 0.86 99 1008.1
20260506163005 42 326 0.9 5.2 0.01 0.85 0.85 99 1008.1
20260506162504 42 323 0.9 7.0 0.01 0.85 0.85 99 1008.1
20260506162004 42 332 0.9 7.0 0.01 0.85 0.85 99 1008.0
20260506161505 42 347 0.9 5.2 0.02 0.85 0.85 99 1008.2
20260506161004 42 29 0.9 5.2 0.02 0.85 0.85 99 1008.1
20260506160503 42 17 0.9 5.2 0.02 0.85 0.85 99 1008.1
20260506160004 42 339 0.9 3.5 0.02 0.85 0.85 99 1008.1
20260506155504 42 312 0.9 3.5 0.02 0.85 0.85 99 1008.0
20260506155005 42 280 0.9 5.2 0.02 0.85 0.85 99 1008.0
20260506154504 42 302 0.9 5.2 0.02 0.85 0.85 99 1007.9
20260506154025 42 23 1.7 7.0 0.03 0.84 0.84 99 1007.9
20260506153503 42 16 1.7 7.0 0.03 0.84 0.84 99 1007.8
20260506153003 42 318 0.9 7.0 0.04 0.84 0.84 99 1007.8
20260506152504 42 320 0.9 5.2 0.03 0.84 0.84 99 1007.9
20260506152003 42 329 0.9 3.5 0.03 0.84 0.84 99 1007.9
20260506151504 42 316 0.9 6.1 0.03 0.83 0.83 99 1008.0
20260506151004 42 322 0.9 6.1 0.03 0.83 0.83 99 1007.8
20260506150503 42 330 0.9 5.2 0.03 0.83 0.83 99 1007.9
20260506150026 42 293 0.9 3.5 0.03 0.83 0.83 99 1008.0
20260506145504 42 289 0.9 1.7 0.03 0.83 0.83 99 1007.8
20260506145005 42 300 0.9 1.7 0.03 0.83 0.82 99 1008.0
20260506144504 42 6 0.9 5.2 0.04 0.83 0.82 99 1008.0
20260506144024 42 83 0.9 5.2 0.03 0.82 0.82 99 1008.1
20260506143503 42 277 0.9 2.6 0.03 0.81 0.81 99 1008.1
20260506143005 42 328 0.9 2.6 0.04 0.81 0.81 99 1008.1
20260506142504 42 55 0.9 2.6 0.04 0.81 0.81 99 1008.1
20260506142003 42 46 0.9 1.7 0.05 0.81 0.81 99 1008.1
20260506141504 42 323 0.9 2.6 0.05 0.81 0.81 98 1008.3
20260506141003 42 354 0.9 5.2 0.05 0.81 0.80 98 1008.1
20260506140503 42 54 0.9 5.2 0.05 0.81 0.80 98 1008.1
20260506140005 42 229 0.9 2.6 0.05 0.81 0.80 98 1008.2
20260506135504 42 249 0.9 2.6 0.04 0.80 0.80 98 1008.0
20260506135004 42 9 0.9 5.2 0.04 0.80 0.79 98 1007.8
20260506134504 42 347 0.9 5.2 0.04 0.80 0.79 98 1008.1
20260506134004 42 335 0.9 3.5 0.03 0.79 0.78 98 1007.8
20260506133504 42 359 0.9 2.6 0.03 0.79 0.78 98 1008.0
20260506133003 42 350 0.9 3.5 0.02 0.78 0.77 98 1007.7
20260506132504 42 326 0.9 3.5 0.01 0.77 0.76 98 1007.8
20260506132005 42 288 0.9 5.2 0.01 0.77 0.76 98 1007.8
20260506131504 42 335 1.7 7.0 0.00 0.76 0.76 98 1008.0
20260506131004 42 36 0.9 7.0 0.00 0.76 0.75 98 1008.0
20260506130503 42 48 0.9 7.0 0.00 0.76 0.75 98 1007.9
20260506130005 41 55 0.9 7.0 0.00 0.76 0.75 98 1007.9
20260506125503 41 94 0.9 7.0 0.00 0.76 0.75 98 1007.6
20260506125003 41 171 0.9 3.5 0.00 0.77 0.75 98 1007.8
20260506124503 41 292 0.9 2.6 0.00 0.77 0.75 98 1007.8
20260506124004 41 335 0.9 2.6 0.00 0.77 0.75 98 1008.0
20260506123503 41 30 0.9 2.6 0.00 0.78 0.75 98 1007.9
20260506123024 41 47 0.9 5.2 0.00 0.78 0.75 98 1007.9
20260506122504 41 45 1.7 6.1 0.01 0.78 0.75 99 1007.7
20260506122003 41 21 0.9 6.1 0.02 0.79 0.75 99 1007.7
20260506121503 41 5 1.7 7.8 0.02 0.79 0.75 99 1007.7
20260506121004 41 9 1.7 7.8 0.02 0.80 0.75 99 1007.6
20260506120503 41 327 0.9 7.0 0.02 0.80 0.75 99 1007.5
20260506120005 41 336 1.7 6.1 0.02 0.80 0.75 99 1007.6
20260506115525 41 8 1.7 7.8 0.02 0.80 0.75 99 1007.8
20260506115003 41 17 1.7 7.8 0.02 0.80 0.75 99 1007.8
20260506114504 41 15 0.9 5.2 0.03 0.81 0.75 99 1007.7
20260506114004 41 3 1.7 7.0 0.03 0.81 0.75 99 1007.8
20260506113504 41 358 1.7 8.7 0.04 0.82 0.75 99 1007.6
20260506113004 41 48 1.7 8.7 0.06 0.82 0.75 99 1007.8
20260506112504 42 57 1.7 6.1 0.06 0.82 0.74 99 1007.6
20260506112024 42 46 1.7 6.1 0.07 0.82 0.74 99 1007.4
20260506111503 42 35 0.9 5.2 0.07 0.81 0.73 99 1007.2
20260506111004 42 16 0.9 7.0 0.10 0.82 0.73 99 1007.5
20260506110503 42 31 1.7 7.8 0.13 0.82 0.73 99 1007.2
20260506110024 43 52 1.7 7.8 0.16 0.82 0.73 99 1007.3
20260506105525 43 30 0.9 5.2 0.18 0.82 0.73 99 1007.2
20260506105004 43 328 1.7 6.1 0.20 0.82 0.73 99 1007.2
20260506104504 43 324 1.7 9.6 0.21 0.81 0.72 99 1007.2
20260506104004 43 341 1.7 9.6 0.25 0.81 0.72 99 1006.9
20260506103503 43 340 0.9 6.1 0.26 0.80 0.70 99 1007.3
20260506103025 44 343 0.9 7.0 0.26 0.78 0.69 99 1007.3
20260506102504 44 359 0.9 7.0 0.29 0.77 0.68 99 1007.2
20260506102004 44 310 0.9 3.5 0.30 0.76 0.67 99 1007.4
20260506101524 44 306 0.9 3.5 0.32 0.75 0.66 99 1007.2
20260506101003 44 1 0.9 5.2 0.31 0.72 0.63 99 1007.2
20260506100503 44 14 0.9 5.2 0.30 0.69 0.60 99 1007.3
20260506100004 44 12 0.9 2.6 0.30 0.67 0.57 99 1007.6
20260506095504 44 20 0.9 3.5 0.29 0.64 0.55 99 1007.9
20260506095003 44 8 0.9 3.5 0.29 0.62 0.53 99 1008.0
20260506094504 43 344 0.9 2.6 0.28 0.60 0.51 99 1007.8
20260506094005 43 330 0.9 3.5 0.26 0.56 0.47 99 1008.1
20260506093503 43 327 0.9 3.5 0.25 0.54 0.45 99 1008.3
20260506093004 43 3 0.9 6.1 0.25 0.52 0.43 99 1008.2
20260506092504 44 37 0.9 6.1 0.22 0.48 0.39 98 1007.5
20260506092004 44 324 0.9 3.5 0.21 0.46 0.37 99 1007.7
20260506091503 44 311 0.9 2.6 0.19 0.43 0.34 99 1007.6
20260506091004 44 294 0.9 2.6 0.19 0.41 0.32 99 1007.6
20260506090503 45 274 0.9 3.5 0.17 0.39 0.30 98 1007.9
20260506090003 45 297 0.9 3.5 0.16 0.37 0.28 99 1008.0
20260506085524 45 317 0.9 2.6 0.16 0.35 0.26 98 1008.1
20260506085027 45 344 0.9 3.5 0.15 0.33 0.24 99 1007.7
20260506084525 45 331 0.9 3.5 0.15 0.32 0.23 98 1007.5
20260506084005 46 295 0.9 2.6 0.14 0.30 0.21 99 1007.5
20260506083527 46 300 0.9 2.6 0.14 0.29 0.20 98 1007.6
20260506083027 46 319 0.9 2.6 0.14 0.28 0.19 98 1007.6
20260506082504 46 298 0.9 2.6 0.13 0.26 0.17 98 1007.5
20260506082005 46 305 0.9 1.7 0.13 0.25 0.16 98 1007.3
20260506081506 46 16 0.9 1.7 0.13 0.24 0.15 98 1007.3
20260506081005 46 4 0.9 1.7 0.12 0.23 0.14 98 1007.3
20260506080506 46 5 0.0 3.5 0.11 0.22 0.13 98 1007.3
20260506073506 46 19 0.9 3.5 0.05 0.15 0.06 97 1007.6
20260506073026 46 350 0.9 3.5 0.04 0.14 0.05 97 1007.4
20260506072526 46 332 0.9 3.5 0.03 0.13 0.04 97 1007.3
20260506072027 46 22 0.9 1.7 0.02 0.12 0.03 97 1007.5
20260506071505 46 79 0.0 1.7 0.02 0.11 0.02 97 1007.5
20260506071006 46 28 0.0 1.7 0.02 0.11 0.02 97 1007.5
20260506070527 46 30 0.0 1.7 0.01 0.11 0.02 97 1007.6
20260506062506 45 235 0.9 3.5 0.01 0.10 0.01 95 1007.8
20260506062006 45 246 0.9 2.6 0.01 0.10 0.01 94 1007.8
20260506061505 45 262 0.9 2.6 0.01 0.10 0.01 94 1007.8
20260506061006 45 282 0.0 2.6 0.00 0.09 0.00 94 1007.7
20260506060525 45 28 0.0 1.7 0.00 0.09 0.00 93 1007.8
20260506051006 45 354 0.9 2.6 0.00 0.09 0.00 95 1008.3
20260506050505 45 328 0.9 2.6 0.00 0.09 0.00 96 1008.3
20260506045006 44 359 0.9 2.6 0.00 0.09 0.00 97 1008.4
20260506044506 44 358 0.9 3.5 0.00 0.09 0.00 98 1008.4
20260506044005 44 358 0.0 3.5 0.00 0.09 0.00 98 1008.4
20260506043505 44 357 0.0 1.7 0.00 0.09 0.00 98 1008.6
20260506043004 44 2 0.0 2.6 0.00 0.09 0.00 98 1008.6
20260506042504 44 8 0.0 2.6 0.00 0.09 0.00 98 1008.5
20260506042006 44 2 0.0 0.9 0.00 0.09 0.00 98 1008.6
20260506041505 44 11 0.0 1.7 0.00 0.09 0.00 98 1008.6
20260506041004 44 21 0.0 1.7 0.00 0.09 0.00 98 1008.9
20260506040527 44 32 0.0 1.7 0.00 0.09 0.00 98 1008.8
20260506040025 44 36 0.9 1.7 0.00 0.09 0.00 99 1008.8
20260506035504 44 27 0.9 1.7 0.00 0.09 0.00 99 1008.6
20260506035006 44 15 0.0 1.7 0.00 0.09 0.00 99 1008.8
20260506034526 43 12 0.0 0.9 0.00 0.09 0.00 99 1008.7
20260506034004 43 14 0.0 1.7 0.00 0.09 0.00 99 1008.8
20260506033505 43 15 0.0 0.9 0.00 0.09 0.00 99 1008.8
20260506033025 43 0 0.0 0.0 0.00 0.09 0.00 99 1008.8
20260506032504 43 0 0.0 0.0 0.00 0.09 0.00 99 1008.7
20260506032005 43 0 0.0 0.0 0.00 0.09 0.00 99 1008.7
20260506031526 43 0 0.0 0.0 0.00 0.09 0.00 99 1008.7
20260506031005 43 15 0.0 0.9 0.00 0.09 0.00 99 1008.8
20260506030504 43 15 0.0 0.9 0.00 0.09 0.00 99 1008.5
20260506030006 44 15 0.0 0.9 0.00 0.09 0.00 99 1008.8
20260506025506 44 15 0.0 0.9 0.00 0.09 0.00 99 1008.9
20260506025006 44 15 0.0 0.9 0.00 0.09 0.00 99 1009.1
20260506024525 44 15 0.0 0.9 0.00 0.09 0.00 99 1009.2
20260506024005 44 8 0.0 0.9 0.00 0.09 0.00 99 1009.2
20260506023504 44 357 0.0 0.9 0.00 0.09 0.00 99 1009.3
20260506023004 44 357 0.0 1.7 0.00 0.09 0.00 99 1009.1
20260506022505 44 358 0.0 1.7 0.00 0.09 0.00 99 1008.9
20260506022004 44 359 0.0 1.7 0.00 0.09 0.00 99 1009.1